CZ-6A DEB, 54579

Orbit data source: Space-Track

CZ-6A DEB, 54579 is space debris in SSO originally from a launch on Fri, 11 Nov 2022 UTC launched from the Taiyaun Space Center, China (TSC). Debris objects in space refer to the collection of defunct objects orbiting the Earth. Examples of debris include non-operational satellites, rocket bodies, and fragments generated from explosions, collisions, or faulty payload assembly.

Loading next visibility...
Identifier
54579, 2022-151MF
Orbit
SSO
Country
Flag of CNCN / PRC
Related business
Manufacturer
SAST
Mission
Spacecraft
Bus & Motor
Unknown
Mass
Unknown
Launch date (UTC)
2022-11-11 (4 years ago)
Launch vehicle
Unknown
Launch site
Taiyaun Space Center, China (TSC)
Object type
Payload
Rocket body
Debris
Shape & HBR
Unknown shape, 0.1 m
Radar Cross Section
Medium (>0.1 m² and <1 m²)

Expand to show TLE details & history
Last TLE update: 2 days ago

TLE from 2 days ago
0 CZ-6A DEB
1 54579U 22151MF  26171.44998022  .00030887  00000-0  28338-2 0  9998
2 54579  98.5487 240.2745 0041526 222.8271 136.9710 14.94139623112732
Epoch: 2026-06-20T10:47Z
TLE epoch observation values (Epoch: 2026-06-20T10:47:58.291Z)
Latitude
-0.00003°
Longitude
169.6172°
Altitude
609.262 km
Speed
7.543 km/s
True Right ascension
16h 01m 05s
True Declination
0° 00' 00"
Sunlit
Object was in full shadow at epoch
Visualization orbit readout
Latitude
Unknown
Longitude
Unknown
Altitude
Unknown
Speed
Unknown
Apparent Right ascension
Unknown
Apparent Declination
Unknown
Sunlit
N/A
Visualization observer readout
Local Sidereal Time
23:18:44
Azimuth
Unknown
Elevation
Unknown
Doppler factor
Unknown
Orbital elements
Apogee altitude
611 km
Perigee altitude
553.194 km
Semi-major axis
6,960.234 km
Eccentricity
0.00415
Inclination
98.5487°
RAAN
240.2745°
Arg. of periapsis
222.8271°
True anomaly
137.29448°
Mean anomaly
136.971°
Eccentric anomaly
137.13286°
Mean motion
3.73773 °/min
Orbital period
96.32 mins
BSTAR
0.0028338
Loading maneuver chart data...
Computing Atmospheric mass density...
Loading historical data...
Loading historical data...
Loading historical data...
Loading historical data...
Loading historical data...
Loading historical data...
Loading historical data...

Documentation

Showing up to 5 results
|